Year,Month,Day,Hour,Minute,Value (Times are PST for temperature in C)
2010,06,19,00,00,11.20
2010,06,19,00,01,11.10
2010,06,19,00,02,11.10
2010,06,19,00,03,11.10
2010,06,19,00,04,11.10
2010,06,19,00,05,11.10
2010,06,19,00,06,11.10
2010,06,19,00,07,11.10
2010,06,19,00,08,11.00
2010,06,19,00,09,11.00
2010,06,19,00,10,11.00
2010,06,19,00,11,11.00
2010,06,19,00,12,11.00
2010,06,19,00,13,10.90
2010,06,19,00,14,10.90
2010,06,19,00,15,10.90
2010,06,19,00,16,10.90
2010,06,19,00,17,10.90
2010,06,19,00,18,10.90
2010,06,19,00,19,10.90
2010,06,19,00,20,10.90
2010,06,19,00,21,10.80
2010,06,19,00,22,10.80
2010,06,19,00,23,10.80
2010,06,19,00,24,10.80
2010,06,19,00,25,10.80
2010,06,19,00,26,10.80
2010,06,19,00,27,10.80
2010,06,19,00,28,10.80
2010,06,19,00,29,10.80
2010,06,19,00,30,10.80
2010,06,19,00,31,10.80
2010,06,19,00,32,10.80
2010,06,19,00,33,10.80
2010,06,19,00,34,10.70
2010,06,19,00,35,10.70
2010,06,19,00,36,10.80
2010,06,19,00,37,10.80
2010,06,19,00,38,10.80
2010,06,19,00,39,10.80
2010,06,19,00,40,10.80
2010,06,19,00,41,10.70
2010,06,19,00,42,10.70
2010,06,19,00,43,10.70
2010,06,19,00,44,10.70
2010,06,19,00,45,10.70
2010,06,19,00,46,10.70
2010,06,19,00,47,10.70
2010,06,19,00,48,10.70
2010,06,19,00,49,10.70
2010,06,19,00,50,10.70
2010,06,19,00,51,10.70
2010,06,19,00,52,10.70
2010,06,19,00,53,10.70
2010,06,19,00,54,10.70
2010,06,19,00,55,10.70
2010,06,19,00,56,10.70
2010,06,19,00,57,10.70
2010,06,19,00,58,10.70
2010,06,19,00,59,10.70
2010,06,19,01,00,10.70
2010,06,19,01,01,10.70
2010,06,19,01,02,10.70
2010,06,19,01,03,10.70
2010,06,19,01,04,10.70
2010,06,19,01,05,10.70
2010,06,19,01,06,10.70
2010,06,19,01,07,10.80
2010,06,19,01,08,10.80
2010,06,19,01,09,10.80
2010,06,19,01,10,10.80
2010,06,19,01,11,10.80
2010,06,19,01,12,10.80
2010,06,19,01,13,10.80
2010,06,19,01,14,10.90
2010,06,19,01,15,10.90
2010,06,19,01,16,10.90
2010,06,19,01,17,10.90
2010,06,19,01,18,10.90
2010,06,19,01,19,10.80
2010,06,19,01,20,10.80
2010,06,19,01,21,10.80
2010,06,19,01,22,10.80
2010,06,19,01,23,10.80
2010,06,19,01,24,10.80
2010,06,19,01,25,10.70
2010,06,19,01,26,10.70
2010,06,19,01,27,10.70
2010,06,19,01,28,10.70
2010,06,19,01,29,10.70
2010,06,19,01,30,10.60
2010,06,19,01,31,10.60
2010,06,19,01,32,10.60
2010,06,19,01,33,10.60
2010,06,19,01,34,10.60
2010,06,19,01,35,10.60
2010,06,19,01,36,10.50
2010,06,19,01,37,10.50
2010,06,19,01,38,10.50
2010,06,19,01,39,10.40
2010,06,19,01,40,10.40
2010,06,19,01,41,10.40
2010,06,19,01,42,10.40
2010,06,19,01,43,10.40
2010,06,19,01,44,10.40
2010,06,19,01,45,10.40
2010,06,19,01,46,10.40
2010,06,19,01,47,10.30
2010,06,19,01,48,10.30
2010,06,19,01,49,10.30
2010,06,19,01,50,10.30
2010,06,19,01,51,10.30
2010,06,19,01,52,10.30
2010,06,19,01,53,10.30
2010,06,19,01,54,10.30
2010,06,19,01,55,10.30
2010,06,19,01,56,10.30
2010,06,19,01,57,10.30
2010,06,19,01,58,10.30
2010,06,19,01,59,10.30
2010,06,19,02,00,10.30
2010,06,19,02,01,10.30
2010,06,19,02,02,10.30
2010,06,19,02,03,10.30
2010,06,19,02,04,10.30
2010,06,19,02,05,10.30
2010,06,19,02,06,10.30
2010,06,19,02,07,10.30
2010,06,19,02,08,10.30
2010,06,19,02,09,10.30
2010,06,19,02,10,10.30
2010,06,19,02,11,10.30
2010,06,19,02,12,10.20
2010,06,19,02,13,10.20
2010,06,19,02,14,10.20
2010,06,19,02,15,10.20
2010,06,19,02,16,10.20
2010,06,19,02,17,10.20
2010,06,19,02,18,10.20
2010,06,19,02,19,10.10
2010,06,19,02,20,10.10
2010,06,19,02,21,10.10
2010,06,19,02,22,10.10
2010,06,19,02,23,10.10
2010,06,19,02,24,10.10
2010,06,19,02,25,10.10
2010,06,19,02,26,10.10
2010,06,19,02,27,10.00
2010,06,19,02,28,10.00
2010,06,19,02,29,10.00
2010,06,19,02,30,10.00
2010,06,19,02,31,9.90
2010,06,19,02,32,9.90
2010,06,19,02,33,9.90
2010,06,19,02,34,9.90
2010,06,19,02,35,9.90
2010,06,19,02,36,9.90
2010,06,19,02,37,9.90
2010,06,19,02,38,9.80
2010,06,19,02,39,9.80
2010,06,19,02,40,9.80
2010,06,19,02,41,9.80
2010,06,19,02,42,9.80
2010,06,19,02,43,9.80
2010,06,19,02,44,9.80
2010,06,19,02,45,9.70
2010,06,19,02,46,9.70
2010,06,19,02,47,9.70
2010,06,19,02,48,9.70
2010,06,19,02,49,9.70
2010,06,19,02,50,9.70
2010,06,19,02,51,9.60
2010,06,19,02,52,9.60
2010,06,19,02,53,9.60
2010,06,19,02,54,9.60
2010,06,19,02,55,9.60
2010,06,19,02,56,9.60
2010,06,19,02,57,9.50
2010,06,19,02,58,9.50
2010,06,19,02,59,9.50
2010,06,19,03,00,9.40
2010,06,19,03,01,9.40
2010,06,19,03,02,9.40
2010,06,19,03,06,9.30
2010,06,19,03,07,9.30
2010,06,19,03,08,9.30
2010,06,19,03,09,9.30
2010,06,19,03,10,9.30
2010,06,19,03,11,9.30
2010,06,19,03,12,9.20
2010,06,19,03,13,9.20
2010,06,19,03,14,9.20
2010,06,19,03,15,9.20
2010,06,19,03,16,9.20
2010,06,19,03,17,9.20
2010,06,19,03,18,9.10
2010,06,19,03,19,9.10
2010,06,19,03,20,9.10
2010,06,19,03,21,9.10
2010,06,19,03,22,9.10
2010,06,19,03,23,9.10
2010,06,19,03,24,9.10
2010,06,19,03,25,9.10
2010,06,19,03,26,9.10
2010,06,19,03,27,9.00
2010,06,19,03,28,9.00
2010,06,19,03,29,9.00
2010,06,19,03,30,9.00
2010,06,19,03,31,9.00
2010,06,19,03,32,9.00
2010,06,19,03,33,8.90
2010,06,19,03,34,8.90
2010,06,19,03,35,8.90
2010,06,19,03,36,8.90
2010,06,19,03,37,8.90
2010,06,19,03,38,8.90
2010,06,19,03,39,8.90
2010,06,19,03,40,8.90
2010,06,19,03,41,8.90
2010,06,19,03,42,8.90
2010,06,19,03,43,8.90
2010,06,19,03,44,8.80
2010,06,19,03,45,8.80
2010,06,19,03,46,8.80
2010,06,19,03,47,8.80
2010,06,19,03,48,8.80
2010,06,19,03,49,8.80
2010,06,19,03,50,8.80
2010,06,19,03,51,8.80
2010,06,19,03,52,8.80
2010,06,19,03,53,8.80
2010,06,19,03,54,8.80
2010,06,19,03,55,8.80
2010,06,19,03,56,8.70
2010,06,19,03,57,8.70
2010,06,19,03,58,8.70
2010,06,19,03,59,8.70
2010,06,19,04,00,8.70
2010,06,19,04,01,8.70
2010,06,19,04,02,8.70
2010,06,19,04,03,8.60
2010,06,19,04,04,8.60
2010,06,19,04,05,8.60
2010,06,19,04,06,8.60
2010,06,19,04,07,8.60
2010,06,19,04,08,8.60
2010,06,19,04,09,8.60
2010,06,19,04,10,8.60
2010,06,19,04,11,8.60
2010,06,19,04,12,8.60
2010,06,19,04,13,8.60
2010,06,19,04,14,8.60
2010,06,19,04,15,8.60
2010,06,19,04,16,8.60
2010,06,19,04,17,8.60
2010,06,19,04,18,8.60
2010,06,19,04,19,8.60
2010,06,19,04,20,8.60
2010,06,19,04,21,8.60
2010,06,19,04,22,8.60
2010,06,19,04,23,8.60
2010,06,19,04,24,8.60
2010,06,19,04,25,8.60
2010,06,19,04,26,8.60
2010,06,19,04,27,8.60
2010,06,19,04,28,8.60
2010,06,19,04,29,8.60
2010,06,19,04,30,8.60
2010,06,19,04,31,8.60
2010,06,19,04,32,8.60
2010,06,19,04,33,8.60
2010,06,19,04,34,8.60
2010,06,19,04,35,8.60
2010,06,19,04,36,8.50
2010,06,19,04,37,8.50
2010,06,19,04,38,8.50
2010,06,19,04,39,8.50
2010,06,19,04,40,8.50
2010,06,19,04,41,8.40
2010,06,19,04,42,8.40
2010,06,19,04,43,8.40
2010,06,19,04,44,8.40
2010,06,19,04,45,8.40
2010,06,19,04,46,8.40
2010,06,19,04,47,8.40
2010,06,19,04,48,8.40
2010,06,19,04,49,8.40
2010,06,19,04,50,8.40
2010,06,19,04,51,8.40
2010,06,19,04,52,8.40
2010,06,19,04,53,8.40
2010,06,19,04,54,8.40
2010,06,19,04,55,8.40
2010,06,19,04,56,8.30
2010,06,19,04,57,8.40
2010,06,19,04,58,8.30
2010,06,19,04,59,8.30
2010,06,19,05,00,8.30
2010,06,19,05,01,8.30
2010,06,19,05,02,8.30
2010,06,19,05,03,8.30
2010,06,19,05,04,8.30
2010,06,19,05,05,8.30
2010,06,19,05,06,8.30
2010,06,19,05,07,8.30
2010,06,19,05,08,8.30
2010,06,19,05,09,8.30
2010,06,19,05,10,8.30
2010,06,19,05,11,8.30
2010,06,19,05,12,8.20
2010,06,19,05,13,8.20
2010,06,19,05,14,8.20
2010,06,19,05,15,8.20
2010,06,19,05,16,8.20
2010,06,19,05,17,8.20
2010,06,19,05,18,8.20
2010,06,19,05,19,8.20
2010,06,19,05,20,8.20
2010,06,19,05,21,8.20
2010,06,19,05,22,8.20
2010,06,19,05,23,8.20
2010,06,19,05,24,8.20
2010,06,19,05,25,8.20
2010,06,19,05,26,8.20
2010,06,19,05,27,8.20
2010,06,19,05,28,8.20
2010,06,19,05,29,8.20
2010,06,19,05,30,8.10
2010,06,19,05,31,8.10
2010,06,19,05,32,8.10
2010,06,19,05,33,8.10
2010,06,19,05,34,8.10
2010,06,19,05,35,8.10
2010,06,19,05,36,8.10
2010,06,19,05,37,8.10
2010,06,19,05,38,8.10
2010,06,19,05,39,8.10
2010,06,19,05,40,8.10
2010,06,19,05,41,8.10
2010,06,19,05,42,8.10
2010,06,19,05,43,8.10
2010,06,19,05,44,8.10
2010,06,19,05,45,8.10
2010,06,19,05,46,8.10
2010,06,19,05,47,8.10
2010,06,19,05,48,8.10
2010,06,19,05,49,8.10
2010,06,19,05,50,8.10
2010,06,19,05,51,8.10
2010,06,19,05,52,8.10
2010,06,19,05,53,8.10
2010,06,19,05,54,8.10
2010,06,19,05,55,8.10
2010,06,19,05,56,8.10
2010,06,19,05,57,8.10
2010,06,19,05,58,8.10
2010,06,19,05,59,8.20
2010,06,19,06,00,8.20
2010,06,19,06,01,8.20
2010,06,19,06,02,8.20
2010,06,19,06,03,8.20
2010,06,19,06,04,8.20
2010,06,19,06,05,8.20
2010,06,19,06,06,8.20
2010,06,19,06,07,8.20
2010,06,19,06,08,8.20
2010,06,19,06,09,8.30
2010,06,19,06,10,8.30
2010,06,19,06,11,8.30
2010,06,19,06,12,8.30
2010,06,19,06,13,8.30
2010,06,19,06,14,8.30
2010,06,19,06,15,8.30
2010,06,19,06,16,8.30
2010,06,19,06,17,8.40
2010,06,19,06,18,8.40
2010,06,19,06,19,8.40
2010,06,19,06,20,8.40
2010,06,19,06,21,8.40
2010,06,19,06,22,8.40
2010,06,19,06,23,8.40
2010,06,19,06,24,8.40
2010,06,19,06,25,8.40
2010,06,19,06,26,8.40
2010,06,19,06,27,8.40
2010,06,19,06,28,8.40
2010,06,19,06,29,8.40
2010,06,19,06,30,8.50
2010,06,19,06,31,8.50
2010,06,19,06,32,8.50
2010,06,19,06,33,8.50
2010,06,19,06,34,8.50
2010,06,19,06,35,8.60
2010,06,19,06,36,8.60
2010,06,19,06,37,8.60
2010,06,19,06,38,8.60
2010,06,19,06,39,8.60
2010,06,19,06,40,8.60
2010,06,19,06,41,8.60
2010,06,19,06,42,8.60
2010,06,19,06,43,8.70
2010,06,19,06,44,8.70
2010,06,19,06,45,8.70
2010,06,19,06,46,8.70
2010,06,19,06,47,8.70
2010,06,19,06,48,8.70
2010,06,19,06,49,8.70
2010,06,19,06,50,8.70
2010,06,19,06,51,8.80
2010,06,19,06,52,8.80
2010,06,19,06,53,8.80
2010,06,19,06,54,8.80
2010,06,19,06,55,8.80
2010,06,19,06,56,8.80
2010,06,19,06,57,8.80
2010,06,19,06,58,8.90
2010,06,19,06,59,8.90
2010,06,19,07,00,8.90
2010,06,19,07,01,9.00
2010,06,19,07,02,9.00
2010,06,19,07,03,9.00
2010,06,19,07,04,9.10
2010,06,19,07,05,9.10
2010,06,19,07,06,9.10
2010,06,19,07,07,9.10
2010,06,19,07,08,9.10
2010,06,19,07,09,9.20
2010,06,19,07,10,9.20
2010,06,19,07,11,9.20
2010,06,19,07,12,9.20
2010,06,19,07,13,9.30
2010,06,19,07,14,9.30
2010,06,19,07,15,9.30
2010,06,19,07,16,9.40
2010,06,19,07,17,9.40
2010,06,19,07,18,9.40
2010,06,19,07,19,9.50
2010,06,19,07,20,9.50
2010,06,19,07,21,9.50
2010,06,19,07,22,9.60
2010,06,19,07,23,9.60
2010,06,19,07,24,9.60
2010,06,19,07,25,9.70
2010,06,19,07,26,9.70
2010,06,19,07,27,9.70
2010,06,19,07,28,9.80
2010,06,19,07,29,9.80
2010,06,19,07,30,9.80
2010,06,19,07,31,9.90
2010,06,19,07,32,9.90
2010,06,19,07,33,10.00
2010,06,19,07,34,10.00
2010,06,19,07,35,10.10
2010,06,19,07,36,10.10
2010,06,19,07,37,10.20
2010,06,19,07,38,10.20
2010,06,19,07,39,10.20
2010,06,19,07,40,10.30
2010,06,19,07,41,10.30
2010,06,19,07,42,10.30
2010,06,19,07,43,10.40
2010,06,19,07,44,10.40
2010,06,19,07,45,10.50
2010,06,19,07,46,10.50
2010,06,19,07,47,10.60
2010,06,19,07,48,10.60
2010,06,19,07,49,10.70
2010,06,19,07,50,10.70
2010,06,19,07,51,10.80
2010,06,19,07,52,10.80
2010,06,19,07,53,10.80
2010,06,19,07,54,10.90
2010,06,19,07,55,10.90
2010,06,19,07,56,11.00
2010,06,19,07,57,11.00
2010,06,19,07,58,11.10
2010,06,19,07,59,11.10
2010,06,19,08,00,11.10
2010,06,19,08,01,11.20
2010,06,19,08,02,11.20
2010,06,19,08,03,11.30
2010,06,19,08,04,11.30
2010,06,19,08,05,11.40
2010,06,19,08,06,11.40
2010,06,19,08,07,11.40
2010,06,19,08,08,11.50
2010,06,19,08,09,11.50
2010,06,19,08,10,11.60
2010,06,19,08,11,11.60
2010,06,19,08,12,11.60
2010,06,19,08,13,11.70
2010,06,19,08,14,11.70
2010,06,19,08,15,11.80
2010,06,19,08,16,11.80
2010,06,19,08,17,11.80
2010,06,19,08,18,11.90
2010,06,19,08,19,12.00
2010,06,19,08,20,12.00
2010,06,19,08,21,12.10
2010,06,19,08,22,12.10
2010,06,19,08,23,12.10
2010,06,19,08,24,12.20
2010,06,19,08,25,12.20
2010,06,19,08,26,12.20
2010,06,19,08,27,12.30
2010,06,19,08,28,12.30
2010,06,19,08,29,12.30
2010,06,19,08,30,12.40
2010,06,19,08,31,12.40
2010,06,19,08,32,12.40
2010,06,19,08,33,12.50
2010,06,19,08,34,12.50
2010,06,19,08,35,12.60
2010,06,19,08,36,12.60
2010,06,19,08,37,12.60
2010,06,19,08,38,12.60
2010,06,19,08,39,12.70
2010,06,19,08,40,12.70
2010,06,19,08,41,12.70
2010,06,19,08,42,12.70
2010,06,19,08,43,12.80
2010,06,19,08,44,12.80
2010,06,19,08,45,12.80
2010,06,19,08,46,12.80
2010,06,19,08,47,12.90
2010,06,19,08,48,12.90
2010,06,19,08,49,12.90
2010,06,19,08,50,13.00
2010,06,19,08,51,13.00
2010,06,19,08,52,13.10
2010,06,19,08,53,13.10
2010,06,19,08,54,13.10
2010,06,19,08,55,13.20
2010,06,19,08,56,13.20
2010,06,19,08,57,13.30
2010,06,19,08,58,13.30
2010,06,19,08,59,13.30
2010,06,19,09,00,13.40
2010,06,19,09,01,13.40
2010,06,19,09,02,13.50
2010,06,19,09,03,13.50
2010,06,19,09,04,13.60
2010,06,19,09,05,13.60
2010,06,19,09,06,13.60
2010,06,19,09,07,13.70
2010,06,19,09,08,13.70
2010,06,19,09,09,13.70
2010,06,19,09,10,13.80
2010,06,19,09,11,13.80
2010,06,19,09,12,13.90
2010,06,19,09,13,13.90
2010,06,19,09,14,14.00
2010,06,19,09,15,14.10
2010,06,19,09,16,14.10
2010,06,19,09,17,14.10
2010,06,19,09,18,14.20
2010,06,19,09,19,14.30
2010,06,19,09,20,14.30
2010,06,19,09,21,14.40
2010,06,19,09,22,14.40
2010,06,19,09,23,14.50
2010,06,19,09,24,14.50
2010,06,19,09,25,14.60
2010,06,19,09,26,14.60
2010,06,19,09,27,14.60
2010,06,19,09,28,14.70
2010,06,19,09,29,14.80
2010,06,19,09,30,14.80
2010,06,19,09,31,15.00
2010,06,19,09,32,15.00
2010,06,19,09,33,15.00
2010,06,19,09,34,15.00
2010,06,19,09,35,15.00
2010,06,19,09,36,15.00
2010,06,19,09,37,15.10
2010,06,19,09,38,15.20
2010,06,19,09,39,15.20
2010,06,19,09,40,15.30
2010,06,19,09,41,15.40
2010,06,19,09,42,15.40
2010,06,19,09,43,15.40
2010,06,19,09,44,15.50
2010,06,19,09,45,15.50
2010,06,19,09,46,15.60
2010,06,19,09,47,15.60
2010,06,19,09,48,15.70
2010,06,19,09,49,15.70
2010,06,19,09,50,15.80
2010,06,19,09,51,15.80
2010,06,19,09,52,15.90
2010,06,19,09,53,16.00
2010,06,19,09,54,16.00
2010,06,19,09,55,16.00
2010,06,19,09,56,16.10
2010,06,19,09,57,16.10
2010,06,19,09,58,16.10
2010,06,19,09,59,16.10
2010,06,19,10,00,16.20
2010,06,19,10,01,16.20
2010,06,19,10,02,16.30
2010,06,19,10,03,16.40
2010,06,19,10,04,16.40
2010,06,19,10,05,16.50
2010,06,19,10,06,16.60
2010,06,19,10,07,16.60
2010,06,19,10,08,16.70
2010,06,19,10,09,16.70
2010,06,19,10,10,16.70
2010,06,19,10,11,16.80
2010,06,19,10,12,16.80
2010,06,19,10,13,16.80
2010,06,19,10,14,16.90
2010,06,19,10,15,16.90
2010,06,19,10,16,16.90
2010,06,19,10,17,17.00
2010,06,19,10,18,17.00
2010,06,19,10,19,17.00
2010,06,19,10,20,17.00
2010,06,19,10,21,17.10
2010,06,19,10,22,17.10
2010,06,19,10,23,17.10
2010,06,19,10,24,17.20
2010,06,19,10,25,17.20
2010,06,19,10,26,17.30
2010,06,19,10,27,17.30
2010,06,19,10,28,17.30
2010,06,19,10,29,17.40
2010,06,19,10,30,17.40
2010,06,19,10,31,17.50
2010,06,19,10,32,17.60
2010,06,19,10,33,17.60
2010,06,19,10,34,17.70
2010,06,19,10,35,17.80
2010,06,19,10,36,17.90
2010,06,19,10,37,18.00
2010,06,19,10,38,18.00
2010,06,19,10,39,18.00
2010,06,19,10,40,18.00
2010,06,19,10,41,17.90
2010,06,19,10,42,17.90
2010,06,19,10,43,17.90
2010,06,19,10,44,17.90
2010,06,19,10,45,17.80
2010,06,19,10,46,17.80
2010,06,19,10,47,17.80
2010,06,19,10,48,17.70
2010,06,19,10,49,17.70
2010,06,19,10,50,17.70
2010,06,19,10,51,17.70
2010,06,19,10,52,17.70
2010,06,19,10,53,17.70
2010,06,19,10,54,17.70
2010,06,19,10,55,17.60
2010,06,19,10,56,17.60
2010,06,19,10,57,17.60
2010,06,19,10,58,17.60
2010,06,19,10,59,17.70
2010,06,19,11,00,17.70
2010,06,19,11,01,17.70
2010,06,19,11,02,17.70
2010,06,19,11,03,17.70
2010,06,19,11,04,17.70
2010,06,19,11,05,17.70
2010,06,19,11,06,17.70
2010,06,19,11,07,17.70
2010,06,19,11,08,17.70
2010,06,19,11,09,17.70
2010,06,19,11,10,17.70
2010,06,19,11,11,17.70
2010,06,19,11,12,17.70
2010,06,19,11,13,17.70
2010,06,19,11,14,17.70
2010,06,19,11,15,17.70
2010,06,19,11,16,17.70
2010,06,19,11,17,17.80
2010,06,19,11,18,17.80
2010,06,19,11,19,17.90
2010,06,19,11,20,17.90
2010,06,19,11,21,17.90
2010,06,19,11,22,17.80
2010,06,19,11,23,17.80
2010,06,19,11,24,17.70
2010,06,19,11,25,17.60
2010,06,19,11,26,17.60
2010,06,19,11,27,17.60
2010,06,19,11,28,17.50
2010,06,19,11,29,17.60
2010,06,19,11,30,17.60
2010,06,19,11,31,17.60
2010,06,19,11,32,17.60
2010,06,19,11,33,17.70
2010,06,19,11,34,17.70
2010,06,19,11,35,17.80
2010,06,19,11,36,17.80
2010,06,19,11,37,17.90
2010,06,19,11,38,17.90
2010,06,19,11,39,17.90
2010,06,19,11,40,17.90
2010,06,19,11,41,17.90
2010,06,19,11,42,17.90
2010,06,19,11,43,17.90
2010,06,19,11,44,17.80
2010,06,19,11,45,17.80
2010,06,19,11,46,17.80
2010,06,19,11,47,17.70
2010,06,19,11,48,17.70
2010,06,19,11,49,17.70
2010,06,19,11,50,17.70
2010,06,19,11,51,17.70
2010,06,19,11,52,17.70
2010,06,19,11,53,17.70
2010,06,19,11,54,17.70
2010,06,19,11,55,17.70
2010,06,19,11,56,17.70
2010,06,19,11,57,17.70
2010,06,19,11,58,17.70
2010,06,19,11,59,17.70
2010,06,19,12,00,17.70
2010,06,19,12,01,17.60
2010,06,19,12,02,17.60
2010,06,19,12,03,17.60
2010,06,19,12,04,17.60
2010,06,19,12,05,17.60
2010,06,19,12,06,17.50
2010,06,19,12,07,17.50
2010,06,19,12,08,17.40
2010,06,19,12,09,17.40
2010,06,19,12,10,17.40
2010,06,19,12,11,17.40
2010,06,19,12,12,17.40
2010,06,19,12,13,17.50
2010,06,19,12,14,17.50
2010,06,19,12,15,17.60
2010,06,19,12,16,17.60
2010,06,19,12,17,17.70
2010,06,19,12,18,17.70
2010,06,19,12,19,17.80
2010,06,19,12,20,17.90
2010,06,19,12,21,18.00
2010,06,19,12,22,18.10
2010,06,19,12,23,18.20
2010,06,19,12,24,18.20
2010,06,19,12,25,18.30
2010,06,19,12,26,18.50
2010,06,19,12,27,18.50
2010,06,19,12,28,18.60
2010,06,19,12,29,18.70
2010,06,19,12,30,18.80
2010,06,19,12,31,18.90
2010,06,19,12,32,18.90
2010,06,19,12,33,18.90
2010,06,19,12,34,19.00
2010,06,19,12,35,19.10
2010,06,19,12,36,19.10
2010,06,19,12,37,19.10
2010,06,19,12,38,19.10
2010,06,19,12,39,19.10
2010,06,19,12,40,19.10
2010,06,19,12,41,19.20
2010,06,19,12,42,19.20
2010,06,19,12,43,19.20
2010,06,19,12,44,19.20
2010,06,19,12,45,19.30
2010,06,19,12,46,19.40
2010,06,19,12,47,19.40
2010,06,19,12,48,19.50
2010,06,19,12,49,19.60
2010,06,19,12,50,19.60
2010,06,19,12,51,19.50
2010,06,19,12,52,19.50
2010,06,19,12,53,19.50
2010,06,19,12,54,19.50
2010,06,19,12,55,19.50
2010,06,19,12,56,19.40
2010,06,19,12,57,19.50
2010,06,19,12,58,19.50
2010,06,19,12,59,19.50
2010,06,19,13,00,19.60
2010,06,19,13,01,19.70
2010,06,19,13,02,19.70
2010,06,19,13,03,19.80
2010,06,19,13,04,19.80
2010,06,19,13,05,19.80
2010,06,19,13,06,19.80
2010,06,19,13,07,19.90
2010,06,19,13,08,19.90
2010,06,19,13,09,19.90
2010,06,19,13,10,19.90
2010,06,19,13,11,19.90
2010,06,19,13,12,19.80
2010,06,19,13,13,19.80
2010,06,19,13,14,19.70
2010,06,19,13,15,19.70
2010,06,19,13,16,19.70
2010,06,19,13,17,19.70
2010,06,19,13,18,19.70
2010,06,19,13,19,19.70
2010,06,19,13,20,19.70
2010,06,19,13,21,19.70
2010,06,19,13,22,19.70
2010,06,19,13,23,19.70
2010,06,19,13,24,19.70
2010,06,19,13,25,19.70
2010,06,19,13,26,19.70
2010,06,19,13,27,19.70
2010,06,19,13,28,19.70
2010,06,19,13,29,19.70
2010,06,19,13,30,19.70
2010,06,19,13,31,19.70
2010,06,19,13,32,19.70
2010,06,19,13,33,19.70
2010,06,19,13,34,19.70
2010,06,19,13,35,19.70
2010,06,19,13,36,19.80
2010,06,19,13,37,19.80
2010,06,19,13,38,19.80
2010,06,19,13,39,19.70
2010,06,19,13,40,19.70
2010,06,19,13,41,19.80
2010,06,19,13,42,19.80
2010,06,19,13,43,19.80
2010,06,19,13,44,19.80
2010,06,19,13,45,19.70
2010,06,19,13,46,19.80
2010,06,19,13,47,19.80
2010,06,19,13,48,19.80
2010,06,19,13,49,19.90
2010,06,19,13,50,20.00
2010,06,19,13,51,20.00
2010,06,19,13,52,20.10
2010,06,19,13,53,20.20
2010,06,19,13,54,20.20
2010,06,19,13,55,20.20
2010,06,19,13,56,20.20
2010,06,19,13,57,20.20
2010,06,19,13,58,20.20
2010,06,19,13,59,20.20
2010,06,19,14,00,20.30
2010,06,19,14,01,20.30
2010,06,19,14,02,20.30
2010,06,19,14,03,20.30
2010,06,19,14,04,20.40
2010,06,19,14,05,20.30
2010,06,19,14,06,20.30
2010,06,19,14,07,20.30
2010,06,19,14,08,20.30
2010,06,19,14,09,20.30
2010,06,19,14,10,20.30
2010,06,19,14,11,20.30
2010,06,19,14,12,20.30
2010,06,19,14,13,20.40
2010,06,19,14,14,20.40
2010,06,19,14,15,20.40
2010,06,19,14,16,20.50
2010,06,19,14,17,20.50
2010,06,19,14,18,20.60
2010,06,19,14,19,20.60
2010,06,19,14,20,20.70
2010,06,19,14,21,20.80
2010,06,19,14,22,20.80
2010,06,19,14,23,20.80
2010,06,19,14,24,20.80
2010,06,19,14,25,20.80
2010,06,19,14,26,20.80
2010,06,19,14,27,20.70
2010,06,19,14,28,20.70
2010,06,19,14,29,20.70
2010,06,19,14,30,20.70
2010,06,19,14,31,20.70
2010,06,19,14,32,20.60
2010,06,19,14,33,20.70
2010,06,19,14,34,20.70
2010,06,19,14,35,20.70
2010,06,19,14,36,20.80
2010,06,19,14,37,20.70
2010,06,19,14,38,20.70
2010,06,19,14,39,20.70
2010,06,19,14,40,20.70
2010,06,19,14,41,20.60
2010,06,19,14,42,20.60
2010,06,19,14,43,20.60
2010,06,19,14,44,20.60
2010,06,19,14,45,20.60
2010,06,19,14,46,20.60
2010,06,19,14,47,20.70
2010,06,19,14,48,20.70
2010,06,19,14,49,20.80
2010,06,19,14,50,20.80
2010,06,19,14,51,20.70
2010,06,19,14,52,20.70
2010,06,19,14,53,20.70
2010,06,19,14,54,20.70
2010,06,19,14,55,20.60
2010,06,19,14,56,20.60
2010,06,19,14,57,20.60
2010,06,19,14,58,20.70
2010,06,19,14,59,20.70
2010,06,19,15,00,20.70
2010,06,19,15,01,20.80
2010,06,19,15,02,20.90
2010,06,19,15,03,20.90
2010,06,19,15,04,21.00
2010,06,19,15,05,21.00
2010,06,19,15,06,21.00
2010,06,19,15,07,20.90
2010,06,19,15,08,20.90
2010,06,19,15,09,20.90
2010,06,19,15,10,20.80
2010,06,19,15,11,20.80
2010,06,19,15,12,20.80
2010,06,19,15,13,20.90
2010,06,19,15,14,21.00
2010,06,19,15,15,21.00
2010,06,19,15,16,21.10
2010,06,19,15,17,21.10
2010,06,19,15,18,21.00
2010,06,19,15,19,21.00
2010,06,19,15,20,20.90
2010,06,19,15,21,20.90
2010,06,19,15,22,20.80
2010,06,19,15,23,20.80
2010,06,19,15,24,20.80
2010,06,19,15,25,20.80
2010,06,19,15,26,20.80
2010,06,19,15,27,20.80
2010,06,19,15,28,20.80
2010,06,19,15,29,20.90
2010,06,19,15,30,21.00
2010,06,19,15,31,21.00
2010,06,19,15,32,21.00
2010,06,19,15,33,20.90
2010,06,19,15,34,20.90
2010,06,19,15,35,20.90
2010,06,19,15,36,20.90
2010,06,19,15,37,20.90
2010,06,19,15,38,20.80
2010,06,19,15,39,20.70
2010,06,19,15,40,20.70
2010,06,19,15,41,20.70
2010,06,19,15,42,20.80
2010,06,19,15,43,20.80
2010,06,19,15,44,20.80
2010,06,19,15,45,20.80
2010,06,19,15,46,20.80
2010,06,19,15,47,20.80
2010,06,19,15,48,20.90
2010,06,19,15,49,20.90
2010,06,19,15,50,20.90
2010,06,19,15,51,20.90
2010,06,19,15,52,21.00
2010,06,19,15,53,21.00
2010,06,19,15,54,21.10
2010,06,19,15,55,21.10
2010,06,19,15,56,21.10
2010,06,19,15,57,21.10
2010,06,19,15,58,21.00
2010,06,19,15,59,21.00
2010,06,19,16,00,20.90
2010,06,19,16,01,20.90
2010,06,19,16,02,20.80
2010,06,19,16,03,20.80
2010,06,19,16,04,20.70
2010,06,19,16,05,20.70
2010,06,19,16,06,20.70
2010,06,19,16,07,20.60
2010,06,19,16,08,20.50
2010,06,19,16,09,20.40
2010,06,19,16,10,20.40
2010,06,19,16,11,20.30
2010,06,19,16,12,20.40
2010,06,19,16,13,20.40
2010,06,19,16,14,20.40
2010,06,19,16,15,20.40
2010,06,19,16,16,20.40
2010,06,19,16,17,20.40
2010,06,19,16,18,20.40
2010,06,19,16,19,20.40
2010,06,19,16,20,20.40
2010,06,19,16,21,20.50
2010,06,19,16,22,20.50
2010,06,19,16,23,20.50
2010,06,19,16,24,20.50
2010,06,19,16,25,20.50
2010,06,19,16,26,20.50
2010,06,19,16,27,20.40
2010,06,19,16,28,20.50
2010,06,19,16,29,20.60
2010,06,19,16,30,20.60
2010,06,19,16,31,20.60
2010,06,19,16,32,20.70
2010,06,19,16,33,20.70
2010,06,19,16,34,20.80
2010,06,19,16,35,20.80
2010,06,19,16,36,20.80
2010,06,19,16,37,20.90
2010,06,19,16,38,21.00
2010,06,19,16,39,21.00
2010,06,19,16,40,21.10
2010,06,19,16,41,21.10
2010,06,19,16,42,21.10
2010,06,19,16,43,21.20
2010,06,19,16,44,21.20
2010,06,19,16,45,21.20
2010,06,19,16,46,21.20
2010,06,19,16,47,21.30
2010,06,19,16,48,21.40
2010,06,19,16,49,21.40
2010,06,19,16,50,21.40
2010,06,19,16,51,21.40
2010,06,19,16,52,21.30
2010,06,19,16,53,21.30
2010,06,19,16,54,21.30
2010,06,19,16,55,21.20
2010,06,19,16,56,21.20
2010,06,19,16,57,21.20
2010,06,19,16,58,21.20
2010,06,19,16,59,21.20
2010,06,19,17,00,21.20
2010,06,19,17,01,21.10
2010,06,19,17,02,21.10
2010,06,19,17,03,21.10
2010,06,19,17,04,21.10
2010,06,19,17,05,21.10
2010,06,19,17,06,21.10
2010,06,19,17,07,21.10
2010,06,19,17,08,21.10
2010,06,19,17,09,21.00
2010,06,19,17,10,21.00
2010,06,19,17,11,20.90
2010,06,19,17,12,20.80
2010,06,19,17,13,20.80
2010,06,19,17,14,20.70
2010,06,19,17,15,20.70
2010,06,19,17,16,20.60
2010,06,19,17,17,20.60
2010,06,19,17,18,20.60
2010,06,19,17,19,20.60
2010,06,19,17,20,20.60
2010,06,19,17,21,20.60
2010,06,19,17,22,20.60
2010,06,19,17,23,20.50
2010,06,19,17,24,20.40
2010,06,19,17,25,20.40
2010,06,19,17,26,20.30
2010,06,19,17,27,20.30
2010,06,19,17,28,20.30
2010,06,19,17,29,20.30
2010,06,19,17,30,20.30
2010,06,19,17,31,20.30
2010,06,19,17,32,20.30
2010,06,19,17,33,20.30
2010,06,19,17,34,20.30
2010,06,19,17,35,20.40